Location: Bourg-d�Oueil
(42.8588°N, 0.4991°E)
Time: 14:44:10
(UTC+00:00)

Cosmos 1758 - Pass Details

Date: 16 June 2021
Orbit: 539 x 562 km, 82.5° (Epoch: 31 July)

Event Time Altitude Azimuth Distance (km) Brightness Sun altitude
Rises 20:38:15 0° 355° (N) 2,714 7.7 -9.3°
Reaches altitude 10° 20:40:28 10° 360° (N) 1,814 6.7 -9.6°
Maximum altitude 20:44:23 58° 80° (E) 638 3.4 -10.1°
Enters shadow 20:47:49 13° 158° (SSE) 1,608 5.1 -10.5°
